TimeCST,TemperatureF,Dew PointF,Humidity,Sea Level PressureIn,VisibilityMPH,Wind Direction,Wind SpeedMPH,Gust SpeedMPH,PrecipitationIn,Events,Conditions,WindDirDegrees,DateUTC
12:56 AM,30.0,25.0,82,30.21,10.0,SSE,3.5,-,N/A,,Mostly Cloudy,150,2012-11-05 06:56:00
1:56 AM,30.9,27.0,85,30.22,8.0,Calm,Calm,-,N/A,,Overcast,0,2012-11-05 07:56:00
2:56 AM,30.9,26.1,82,30.21,9.0,ESE,4.6,-,N/A,,Overcast,120,2012-11-05 08:56:00
3:56 AM,30.9,26.1,82,30.21,8.0,ESE,4.6,-,N/A,,Mostly Cloudy,120,2012-11-05 09:56:00
4:56 AM,27.0,24.1,89,30.22,7.0,Calm,Calm,-,N/A,,Clear,0,2012-11-05 10:56:00
5:56 AM,27.0,24.1,89,30.22,6.0,Calm,Calm,-,N/A,,Clear,0,2012-11-05 11:56:00
6:56 AM,25.0,21.9,88,30.22,4.0,Calm,Calm,-,N/A,,Clear,0,2012-11-05 12:56:00
7:56 AM,28.9,26.1,89,30.23,5.0,Calm,Calm,-,N/A,,Clear,0,2012-11-05 13:56:00
8:56 AM,34.0,28.0,79,30.24,8.0,Calm,Calm,-,N/A,,Clear,0,2012-11-05 14:56:00
9:56 AM,39.0,28.9,67,30.23,9.0,ESE,8.1,-,N/A,,Clear,110,2012-11-05 15:56:00
10:56 AM,41.0,28.9,62,30.23,10.0,SE,8.1,-,N/A,,Mostly Cloudy,130,2012-11-05 16:56:00
11:26 AM,42.8,28.4,57,30.21,10.0,SE,8.1,-,N/A,,Scattered Clouds,130,2012-11-05 17:26:00
11:56 AM,43.0,28.9,58,30.20,10.0,Variable,6.9,-,N/A,,Partly Cloudy,0,2012-11-05 17:56:00
12:56 PM,43.0,26.1,51,30.18,10.0,Calm,Calm,-,N/A,,Partly Cloudy,0,2012-11-05 18:56:00
1:56 PM,44.1,27.0,51,30.16,10.0,Calm,Calm,-,N/A,,Clear,0,2012-11-05 19:56:00
2:56 PM,45.0,25.0,46,30.15,10.0,ESE,5.8,-,N/A,,Clear,110,2012-11-05 20:56:00
3:56 PM,44.1,25.0,47,30.14,10.0,ESE,3.5,-,N/A,,Clear,110,2012-11-05 21:56:00
4:56 PM,39.9,27.0,60,30.16,10.0,NE,4.6,-,N/A,,Clear,50,2012-11-05 22:56:00
5:56 PM,35.1,26.1,70,30.17,10.0,ESE,5.8,-,N/A,,Clear,110,2012-11-05 23:56:00
6:56 PM,33.1,26.1,75,30.16,10.0,Calm,Calm,-,N/A,,Clear,0,2012-11-06 00:56:00
7:56 PM,28.9,24.1,82,30.15,10.0,SE,3.5,-,N/A,,Clear,130,2012-11-06 01:56:00
8:56 PM,27.0,24.1,89,30.15,8.0,Calm,Calm,-,N/A,,Clear,0,2012-11-06 02:56:00
9:56 PM,27.0,23.0,85,30.12,8.0,East,5.8,-,N/A,,Clear,100,2012-11-06 03:56:00
10:56 PM,28.0,25.0,88,30.10,7.0,East,5.8,-,N/A,,Clear,100,2012-11-06 04:56:00
11:56 PM,27.0,23.0,85,30.11,7.0,Calm,Calm,-,N/A,,Clear,0,2012-11-06 05:56:00